[[{"header":{"parameterUnit":"m.s-1","parameterCategory":1,"la1":30.2991,"la2":30.254,"lo1":-89.0895,"lo2":-89.0444,"dy":0.0017,"dx":0.0017,"nx":28,"ny":28,"refTime":"2025-01-24T09:00:00:Z","depth":0,"parameterNumber":2,"parameterNumberName":"U-component_of_WINDS"},"data":[0,0,0,0,0,0,0,0,0,0,0,0,0,0,0,0,0,0,0,0,0,0,0,0,0,0,0,0,0,0,0,0,0,0,0,0,0,0,0,0,0,0,0,0,0,0,0,0,0,0,0,0,0,0,0,0,0,0,-2.2261,-2.2261,0,-2.2295,-2.2295,-2.2296,-2.2284,-2.2283,-2.2282,-2.2282,-2.2317,-2.2319,-2.232,0,0,0,0,0,0,0,0,0,0,0,0,0,-2.2185,-2.2186,-2.2261,-2.2261,-2.2262,-2.2295,-2.2295,-2.2296,-2.2284,-2.2283,-2.2282,-2.2281,-2.2317,-2.2319,-2.2321,0,0,0,0,0,0,0,0,0,0,0,0,0,-2.2218,-2.2187,-2.2261,-2.226,-2.226,-2.2295,-2.2295,-2.2296,-2.2284,-2.2283,-2.2282,-2.2281,-2.2316,-2.2318,-2.2321,-2.2359,0,0,-2.2328,-2.2329,0,0,0,0,0,0,0,0,-2.2216,-2.2221,-2.226,-2.226,-2.226,-2.2284,-2.2281,-2.2317,-2.2284,-2.2275,-2.2282,-2.228,-2.2307,-2.231,-2.2319,-2.236,-2.2362,-2.2329,-2.233,-2.2331,-2.2332,0,0,0,0,0,0,0,-2.2214,-2.222,-2.2274,-2.226,-2.2261,-2.2257,-2.2261,-2.2288,-2.2297,-2.2276,-2.2275,-2.2279,-2.2307,-2.2317,-2.232,-2.2362,-2.2329,-2.2331,-2.2332,-2.2333,-2.2433,-2.2434,0,0,0,0,0,0,-2.2212,-2.2218,-2.2273,-2.2275,-2.2235,-2.226,-2.2264,-2.2278,-2.2297,-2.2299,-2.228,-2.2278,-2.2313,-2.2317,-2.2321,-2.2364,-2.2331,-2.2333,-2.2335,-2.2432,-2.2433,-2.2434,0,0,0,0,0,0,-2.221,-2.2217,-2.2272,-2.2246,-2.2253,-2.2262,-2.2278,-2.2279,-2.2288,-2.23,-2.2301,-2.2288,-2.2312,-2.2318,-2.2349,-2.2365,-2.2335,-2.2337,-2.243,-2.2432,-2.2434,-2.2452,0,0,0,0,0,0,-2.2208,-2.2216,-2.2231,-2.2247,-2.2255,-2.2299,-2.2279,-2.228,-2.2293,-2.2291,-2.2308,-2.231,-2.2312,-2.2345,-2.2351,-2.2368,-2.2339,-2.2429,-2.2431,-2.2433,-2.245,-2.2454,-2.2458,0,0,0,0,0,-2.2205,-2.2236,-2.2232,-2.2239,-2.2273,-2.23,-2.2305,-2.2306,-2.2294,-2.2309,-2.2315,-2.2309,-2.2363,-2.2348,-2.2355,-2.2373,-2.2428,-2.243,-2.2433,-2.2448,-2.2454,-2.2458,0,0,0,0,0,0,-2.2224,-2.2238,-2.2234,-2.2271,-2.2284,-2.2298,-2.2317,-2.2312,-2.233,-2.2328,-2.2329,-2.2333,-2.2364,-2.2372,-2.2356,-2.2409,-2.2393,-2.2397,-2.2403,-2.2408,-2.2412,-2.2409,-2.2341,0,0,0,0,0,-2.2232,-2.2252,-2.2264,-2.2295,-2.2302,-2.2308,-2.232,-2.232,-2.2334,-2.234,-2.2349,-2.2363,-2.2383,-2.2396,-2.2415,-2.2451,-2.2454,-2.2467,-2.2471,-2.2474,-2.2477,-2.2494,-2.25,-2.2443,-2.2443,-2.2443,0,0,-2.2249,-2.2259,-2.2273,-2.2299,-2.231,-2.233,-2.2313,-2.2337,-2.2352,-2.2344,-2.2373,-2.238,-2.2395,-2.2428,-2.2444,-2.2436,-2.2493,-2.2477,-2.248,-2.2481,-2.2498,-2.2503,-2.2508,-2.2445,-2.2444,-2.2444,0,0,-2.2291,-2.2302,-2.2327,-2.2337,-2.2353,-2.2356,-2.2362,-2.2377,-2.2381,-2.241,-2.2403,-2.2421,-2.2456,-2.2466,-2.2476,-2.2518,-2.2512,-2.2524,-2.2545,-2.2561,-2.2566,-2.257,-2.2582,-2.2587,-2.2528,-2.2528,-2.2528,0,-2.231,-2.2341,-2.2341,-2.2364,-2.2375,-2.2367,-2.2392,-2.2402,-2.2424,-2.2431,-2.2422,-2.2463,-2.2473,-2.2507,-2.2517,-2.2526,-2.2532,-2.2522,-2.2565,-2.2569,-2.2573,-2.2585,-2.259,-2.2529,-2.2529,-2.2529,-2.2529,0,-2.2363,-2.2384,-2.2403,-2.2422,-2.2435,-2.2459,-2.2462,-2.2475,-2.2473,-2.2477,-2.2505,-2.2517,-2.2537,-2.2545,-2.2544,-2.2578,-2.2573,-2.2565,-2.2548,-2.2579,-2.2591,-2.2596,-2.2531,-2.253,-2.253,-2.253,0,0,-2.2419,-2.2435,-2.2442,-2.2449,-2.2464,-2.248,-2.2503,-2.2521,-2.2531,-2.2546,-2.2564,-2.2592,-2.2583,-2.2594,-2.2594,-2.2609,-2.2639,-2.2599,-2.2599,-2.2604,-2.2674,-2.2679,-2.2685,-2.2635,-2.2636,-2.2637,-2.2672,0,-2.246,-2.2499,-2.2498,-2.2535,-2.2553,-2.2545,-2.2564,-2.2575,-2.2579,-2.2594,-2.2599,-2.2618,-2.2606,-2.2613,-2.2627,-2.2632,-2.2652,-2.263,-2.2651,-2.2651,-2.2645,-2.2691,-2.2697,-2.273,-2.2677,-2.2678,-2.2678,0,-2.2514,-2.2528,-2.2565,-2.2574,-2.2582,-2.26,-2.2615,-2.263,-2.2642,-2.2643,-2.2654,-2.2651,-2.2673,-2.2657,-2.2686,-2.267,-2.2678,-2.2682,-2.2683,-2.2684,-2.2666,-2.2692,-2.2741,-2.2745,-2.2686,-2.2685,-2.2685,0,-2.2547,-2.2576,-2.2601,-2.2608,-2.262,-2.2632,-2.2638,-2.2648,-2.2658,-2.2672,-2.2678,-2.2694,-2.2702,-2.2715,-2.2715,-2.2704,-2.2744,-2.2728,-2.2744,-2.2744,-2.2753,-2.2752,-2.2802,-2.2761,-2.2761,-2.2761,-2.276,0,-2.2593,-2.2616,-2.2616,-2.2631,-2.2656,-2.2654,-2.2679,-2.2683,-2.2692,-2.2707,-2.2702,-2.2717,-2.2717,-2.2732,-2.2733,-2.2755,-2.276,-2.2761,-2.276,-2.276,-2.276,-2.2765,-2.2762,-2.2762,-2.2762,-2.2761,-2.2761,0,-2.2635,-2.2636,-2.2663,-2.2671,-2.2674,-2.2691,-2.2698,-2.2712,-2.2715,-2.2734,-2.2739,-2.2743,-2.2759,-2.2761,-2.2781,-2.2782,-2.2808,-2.2806,-2.2804,-2.2803,-2.2818,-2.2816,-2.2873,-2.2879,-2.2835,-2.2835,-2.2836,0,-2.2663,-2.268,-2.2689,-2.2699,-2.2704,-2.272,-2.273,-2.2728,-2.2738,-2.2751,-2.2763,-2.2779,-2.2792,-2.2818,-2.2823,-2.2837,-2.2835,-2.2853,-2.2837,-2.2836,-2.2833,-2.2831,-2.2832,-2.2856,-2.2857,-2.2857,-2.2858,0,-2.2712,-2.2711,-2.2725,-2.2738,-2.2749,-2.276,-2.2769,-2.2777,-2.2777,-2.2789,-2.2805,-2.2814,-2.2833,-2.2848,-2.2862,-2.2868,-2.2862,-2.2863,-2.2867,-2.2866,-2.2864,-2.2863,-2.2811,-2.2861,-2.2861,-2.2861,-2.2861,-2.286,-2.2747,-2.276,-2.2768,-2.2783,-2.2789,-2.2798,-2.2811,-2.2814,-2.2827,-2.2841,-2.284,-2.2857,-2.2866,-2.2884,-2.289,-2.2903,-2.2897,-2.2903,-2.2905,-2.2906,-2.2907,-2.2862,-2.2906,-2.2906,-2.2906,-2.2906,-2.2905,0,-2.2794,-2.2798,-2.2811,-2.2824,-2.2835,-2.2828,-2.2837,-2.2847,-2.2862,-2.287,-2.2882,-2.2899,-2.2913,-2.2918,-2.2931,-2.2941,-2.2938,-2.2944,-2.2943,-2.2943,-2.2913,-2.2907,-2.2945,-2.2945,-2.2945,-2.2945,-2.2945,-2.2945,-2.282,-2.2841,-2.2841,-2.2864,-2.2868,-2.2884,-2.289,-2.2897,-2.2903,-2.2923,-2.2934,-2.2936,-2.2942,-2.2956,-2.2968,-2.2969,-2.2973,-2.298,-2.2979,-2.295,-2.2946,-2.2942,-2.2936,-2.2981,-2.2981,-2.3009,-2.3009,-2.3009]},{"header":{"parameterUnit":"m.s-1","parameterCategory":1,"la1":30.2991,"la2":30.254,"lo1":-89.0895,"lo2":-89.0444,"dy":0.0017,"dx":0.0017,"nx":28,"ny":28,"refTime":"2025-01-24T09:00:00:Z","depth":0,"parameterNumber":3,"parameterNumberName":"V-component_of_WINDS"},"data":[0,0,0,0,0,0,0,0,0,0,0,0,0,0,0,0,0,0,0,0,0,0,0,0,0,0,0,0,0,0,0,0,0,0,0,0,0,0,0,0,0,0,0,0,0,0,0,0,0,0,0,0,0,0,0,0,0,0,-1.2397,-1.2395,0,-1.2242,-1.224,-1.2238,-1.2207,-1.2208,-1.2209,-1.221,-1.2044,-1.2039,-1.2033,0,0,0,0,0,0,0,0,0,0,0,0,0,-1.2655,-1.2651,-1.2397,-1.2395,-1.2393,-1.2242,-1.224,-1.2238,-1.2207,-1.2208,-1.221,-1.2211,-1.2046,-1.2039,-1.2033,0,0,0,0,0,0,0,0,0,0,0,0,0,-1.2526,-1.2649,-1.2397,-1.236,-1.2355,-1.2243,-1.224,-1.2237,-1.2206,-1.2208,-1.221,-1.2212,-1.2048,-1.204,-1.2032,-1.1944,0,0,-1.2006,-1.2003,0,0,0,0,0,0,0,0,-1.2533,-1.2516,-1.2367,-1.2362,-1.2356,-1.2246,-1.227,-1.2139,-1.2206,-1.2262,-1.2211,-1.2213,-1.2109,-1.2096,-1.2063,-1.1936,-1.1929,-1.2006,-1.2001,-1.1997,-1.1995,0,0,0,0,0,0,0,-1.2542,-1.2523,-1.2335,-1.2365,-1.2358,-1.2347,-1.233,-1.2245,-1.2177,-1.2258,-1.2255,-1.2238,-1.2107,-1.2071,-1.2059,-1.1927,-1.2006,-1.1998,-1.1993,-1.199,-1.1713,-1.171,0,0,0,0,0,0,-1.2559,-1.253,-1.234,-1.2331,-1.2451,-1.2341,-1.2322,-1.2279,-1.2178,-1.2165,-1.2236,-1.2237,-1.2084,-1.2068,-1.2053,-1.1938,-1.1997,-1.1989,-1.1985,-1.1715,-1.1712,-1.1709,0,0,0,0,0,0,-1.2565,-1.2543,-1.2347,-1.243,-1.2404,-1.2334,-1.2286,-1.2275,-1.224,-1.2162,-1.2149,-1.2213,-1.2085,-1.2064,-1.197,-1.1932,-1.1986,-1.1978,-1.1718,-1.1714,-1.1711,-1.1711,0,0,0,0,0,0,-1.2572,-1.2545,-1.2514,-1.2429,-1.24,-1.227,-1.2284,-1.2271,-1.2226,-1.2225,-1.2137,-1.2123,-1.2085,-1.1983,-1.1962,-1.1921,-1.1971,-1.1721,-1.1716,-1.1712,-1.1714,-1.1708,-1.1703,0,0,0,0,0,-1.2582,-1.252,-1.2512,-1.249,-1.236,-1.2268,-1.2251,-1.221,-1.2224,-1.2189,-1.2138,-1.2126,-1.194,-1.1973,-1.195,-1.1906,-1.1723,-1.1717,-1.1712,-1.1716,-1.1709,-1.1703,0,0,0,0,0,0,-1.26,-1.2508,-1.2499,-1.2409,-1.2347,-1.2263,-1.2219,-1.2204,-1.2135,-1.2137,-1.2086,-1.2066,-1.1974,-1.1931,-1.197,-1.1812,-1.1832,-1.1821,-1.1843,-1.1835,-1.183,-1.184,-1.1965,0,0,0,0,0,-1.2594,-1.253,-1.2452,-1.238,-1.2349,-1.229,-1.2248,-1.2222,-1.2154,-1.2127,-1.207,-1.2002,-1.1927,-1.188,-1.1808,-1.1708,-1.1685,-1.1666,-1.166,-1.1656,-1.1646,-1.1584,-1.1572,-1.1692,-1.1692,-1.1692,0,0,-1.258,-1.2522,-1.2485,-1.2382,-1.2331,-1.2261,-1.2268,-1.2196,-1.2142,-1.2115,-1.2022,-1.1977,-1.1898,-1.1799,-1.1753,-1.1761,-1.1608,-1.1649,-1.1647,-1.1639,-1.1577,-1.1566,-1.1556,-1.1688,-1.1689,-1.1689,0,0,-1.2518,-1.2471,-1.2402,-1.235,-1.2272,-1.2232,-1.2216,-1.2133,-1.2103,-1.2009,-1.1985,-1.192,-1.1795,-1.1737,-1.1691,-1.1603,-1.1586,-1.158,-1.1549,-1.1489,-1.1479,-1.147,-1.1432,-1.142,-1.1572,-1.1572,-1.1572,0,-1.2509,-1.2408,-1.2368,-1.2295,-1.2248,-1.2222,-1.2149,-1.21,-1.2002,-1.1967,-1.1979,-1.1816,-1.1762,-1.1646,-1.1624,-1.159,-1.1565,-1.1589,-1.1484,-1.1475,-1.1466,-1.1429,-1.1416,-1.1571,-1.1571,-1.1571,-1.1571,0,-1.2398,-1.2327,-1.228,-1.2186,-1.2134,-1.2062,-1.2007,-1.1958,-1.1935,-1.1893,-1.1793,-1.1727,-1.1637,-1.1609,-1.1586,-1.1487,-1.1493,-1.1495,-1.1513,-1.1455,-1.1419,-1.1405,-1.157,-1.1571,-1.1571,-1.1571,0,0,-1.2344,-1.2227,-1.221,-1.2164,-1.2075,-1.2017,-1.1941,-1.1855,-1.1811,-1.1744,-1.1674,-1.1567,-1.1566,-1.1514,-1.1484,-1.1432,-1.1357,-1.1438,-1.1436,-1.1421,-1.1237,-1.1232,-1.1217,-1.1348,-1.1345,-1.1343,-1.1241,0,-1.2267,-1.2133,-1.2093,-1.1979,-1.1908,-1.1881,-1.1813,-1.1748,-1.1705,-1.1636,-1.1588,-1.151,-1.1519,-1.1486,-1.1433,-1.1378,-1.1319,-1.1385,-1.1277,-1.1274,-1.1293,-1.12,-1.1196,-1.1104,-1.1228,-1.1225,-1.1224,0,-1.2161,-1.2091,-1.1969,-1.1883,-1.1852,-1.1793,-1.1707,-1.1644,-1.1568,-1.1539,-1.1479,-1.1453,-1.1366,-1.1392,-1.1268,-1.1314,-1.1267,-1.1233,-1.1228,-1.1213,-1.1242,-1.1176,-1.1074,-1.1058,-1.1203,-1.1204,-1.1206,0,-1.2126,-1.2002,-1.1912,-1.1874,-1.1773,-1.1731,-1.1686,-1.1612,-1.1561,-1.1485,-1.145,-1.1366,-1.1318,-1.125,-1.1199,-1.1224,-1.1078,-1.1101,-1.1046,-1.1047,-1.1014,-1.1016,-1.0898,-1.0993,-1.0993,-1.0993,-1.0994,0,-1.2042,-1.1968,-1.1894,-1.1838,-1.1751,-1.1704,-1.1618,-1.1572,-1.1505,-1.1435,-1.1406,-1.1341,-1.128,-1.1204,-1.1164,-1.1064,-1.1044,-1.1014,-1.1003,-1.1014,-1.1017,-1.0979,-1.0982,-1.0989,-1.099,-1.0991,-1.0992,0,-1.1989,-1.1937,-1.1836,-1.1748,-1.1724,-1.1663,-1.1585,-1.1527,-1.1482,-1.1394,-1.137,-1.1298,-1.1208,-1.1151,-1.1036,-1.1008,-1.0896,-1.0891,-1.0922,-1.0916,-1.0863,-1.0867,-1.0712,-1.0686,-1.0804,-1.0803,-1.0803,0,-1.1937,-1.1878,-1.1783,-1.1735,-1.169,-1.1615,-1.1561,-1.1511,-1.1456,-1.1361,-1.1313,-1.1221,-1.1144,-1.1,-1.0934,-1.0845,-1.0832,-1.0785,-1.0819,-1.0829,-1.0824,-1.0826,-1.0817,-1.0778,-1.0777,-1.0776,-1.0775,0,-1.1848,-1.1824,-1.1751,-1.1666,-1.1604,-1.1534,-1.1465,-1.1426,-1.1363,-1.1302,-1.121,-1.115,-1.1031,-1.0937,-1.0841,-1.079,-1.0769,-1.0765,-1.0747,-1.0754,-1.0773,-1.0756,-1.0901,-1.0768,-1.0769,-1.0769,-1.077,-1.077,-1.1789,-1.1733,-1.1656,-1.1573,-1.1516,-1.145,-1.1389,-1.1336,-1.1259,-1.1159,-1.1133,-1.1034,-1.0952,-1.0821,-1.0768,-1.0686,-1.0692,-1.0667,-1.066,-1.0653,-1.0648,-1.079,-1.0669,-1.0669,-1.0669,-1.0669,-1.067,0,-1.1693,-1.1642,-1.1566,-1.1469,-1.1402,-1.1392,-1.1312,-1.1255,-1.117,-1.1097,-1.1021,-1.0911,-1.0819,-1.0745,-1.0649,-1.0597,-1.0584,-1.0573,-1.0573,-1.056,-1.0652,-1.0675,-1.0584,-1.0584,-1.0584,-1.0584,-1.0584,-1.0584,-1.1635,-1.1538,-1.1505,-1.1376,-1.1324,-1.1228,-1.1183,-1.112,-1.106,-1.0939,-1.0863,-1.0817,-1.0741,-1.0638,-1.055,-1.0531,-1.0493,-1.0483,-1.046,-1.0546,-1.0555,-1.0564,-1.0585,-1.0477,-1.0476,-1.0374,-1.0373,-1.0373]}]]